Regional Weather Roundup
Issued by NWS Goodland, KS

Home | Current Version | Previous Version | Graphics & Text | Print | Product List | Glossary On
Versions: 1 2 3 4 5 6 7 8 9 10 11 12 13 14 15 16 17 18 19 20 21 22 23 24 25 26 27 28 29 30 31 32 33 34 35 36 37 38 39 40 41 42 43 44 45 46 47 48 49 50
000
ASUS43 KGLD 260959
RWRGLD

GOODLAND FORECAST AREA HOURLY WEATHER ROUNDUP
NATIONAL WEATHER SERVICE GOODLAND KS
400 AM MDT THU APR 26 2018

...OFFICIAL OBSERVATIONS...

CITY           SKY/WX    TMP DP  RH WIND       PRES   REMARKS
GOODLAND KS    CLEAR     42  32  67 SW14      29.91F
HILL CITY KS   CLEAR     36  35  96 SW3       29.97F
IMPERIAL NEB   CLOUDY    40  34  79 S5        29.91F
MCCOOK NEB     MOCLDY    39  34  82 S7        29.94R
AKRON CO       CLOUDY    48  28  46 N26G38    29.98R
BURLINGTON CO  CLEAR     36  31  82 MISG      29.98R
LIMON CO       MOCLDY    44  28  53 NW15      30.03R
$$

...UNOFFICIAL OBSERVATIONS...

CITY           SKY/WX    TMP DP  RH WIND       PRES   REMARKS
NORTON KS      CLEAR     37  34  87 S5        29.96
SHARON SPRINGS   N/A     37  31  79 SW12        N/A
KIT CARSON CO    N/A     34  29  82 CALM        N/A
YUMA CO        FAIR      45  23  42 NW14      29.94R
$$




USA.gov is the U.S. government's official web portal to all federal, state and local government web resources and services.